Location: B?jaj?g
(11.7167°N, 92.6667°E)
Time: 04:20:38
(UTC+00:00)

Cosmos 1932 - Pass Details

Date: 18 September 2020
Orbit: 925 x 1005 km, 65.0° (Epoch: 20 October)

Event Time Altitude Azimuth Distance (km) Brightness Sun altitude
Rises 12:55:11 0° 345° (NNW) 3,655 7.8 -17.2°
Reaches altitude 10° 12:57:49 10° 350° (N) 2,696 7.0 -17.9°
Maximum altitude 13:03:58 55° 67° (ENE) 1,126 4.5 -19.4°
Enters shadow 13:07:07 28° 132° (SE) 1,683 5.3 -20.2°
